TimeEDT,TemperatureF,Dew PointF,Humidity,Sea Level PressureIn,VisibilityMPH,Wind Direction,Wind SpeedMPH,Gust SpeedMPH,PrecipitationIn,Events,Conditions,WindDirDegrees,DateUTC
12:54 AM,44.1,33.1,65,29.67,-9999.0,WNW,11.5,17.3,N/A,,Unknown,300,2013-10-24 04:54:00
1:54 AM,43.0,33.1,68,29.68,-9999.0,WNW,10.4,17.3,N/A,,Unknown,300,2013-10-24 05:54:00
2:54 AM,41.0,33.1,73,29.69,-9999.0,West,11.5,-,N/A,,Unknown,280,2013-10-24 06:54:00
3:54 AM,39.9,33.1,77,29.70,-9999.0,West,13.8,-,N/A,,Unknown,270,2013-10-24 07:54:00
4:54 AM,37.9,32.0,79,29.73,-9999.0,West,15.0,-,N/A,,Unknown,280,2013-10-24 08:54:00
5:54 AM,37.9,32.0,79,29.76,-9999.0,WNW,15.0,21.9,N/A,,Unknown,290,2013-10-24 09:54:00
6:54 AM,36.0,30.9,82,29.78,-9999.0,West,12.7,-,N/A,,Unknown,280,2013-10-24 10:54:00
7:54 AM,37.0,32.0,82,29.80,-9999.0,West,11.5,-,N/A,,Unknown,270,2013-10-24 11:54:00
8:54 AM,39.0,32.0,76,29.83,-9999.0,West,10.4,19.6,N/A,,Unknown,270,2013-10-24 12:54:00
10:54 AM,46.0,28.0,50,29.83,-9999.0,West,16.1,26.5,N/A,,Unknown,270,2013-10-24 14:54:00
11:54 AM,48.0,26.1,42,29.82,-9999.0,West,17.3,27.6,N/A,,Unknown,270,2013-10-24 15:54:00
12:54 PM,48.9,25.0,39,29.80,-9999.0,West,17.3,28.8,N/A,,Unknown,260,2013-10-24 16:54:00
1:54 PM,48.9,24.1,38,29.79,-9999.0,West,16.1,25.3,N/A,,Unknown,280,2013-10-24 17:54:00
2:54 PM,50.0,23.0,35,29.80,-9999.0,West,15.0,28.8,N/A,,Unknown,270,2013-10-24 18:54:00
3:54 PM,51.1,23.0,33,29.81,-9999.0,West,11.5,23.0,N/A,,Unknown,260,2013-10-24 19:54:00
4:54 PM,48.9,21.0,33,29.82,-9999.0,West,18.4,27.6,N/A,,Unknown,270,2013-10-24 20:54:00
5:54 PM,46.9,21.0,36,29.83,-9999.0,WSW,12.7,20.7,N/A,,Unknown,250,2013-10-24 21:54:00
6:54 PM,45.0,21.9,40,29.86,-9999.0,WSW,10.4,-,N/A,,Unknown,240,2013-10-24 22:54:00
7:54 PM,43.0,23.0,45,29.88,-9999.0,WSW,12.7,-,N/A,,Unknown,240,2013-10-24 23:54:00
8:54 PM,42.1,24.1,49,29.88,-9999.0,WSW,11.5,-,N/A,,Unknown,240,2013-10-25 00:54:00
9:54 PM,41.0,25.0,53,29.90,-9999.0,WSW,13.8,-,N/A,,Unknown,240,2013-10-25 01:54:00
10:54 PM,39.0,25.0,57,29.90,-9999.0,WSW,15.0,-,N/A,,Unknown,250,2013-10-25 02:54:00
11:54 PM,39.0,26.1,60,29.91,-9999.0,West,15.0,-,N/A,,Unknown,260,2013-10-25 03:54:00